Flagstaff, AZ

12:45 PM MST on February 22, 2018 (GMT -0700)
Flagstaff Pulliam

Weather History for KFLG - September, 2012

Change the Weather History Date:

Monday, September 3, 2012

  Actual Average Record
Temperature  
Mean Temperature 64 °F 61 °F  
Max Temperature 78 °F 76 °F 91 °F (1948)
Min Temperature 49 °F 46 °F 34 °F (1961)
Degree Days  
Heating Degree Days 1 4  
Month to date heating degree days 3 11  
Since 1 July heating degree days 37 99  
Cooling Degree Days 0 0  
Month to date cooling degree days 0 0  
Year to date cooling degree days 164 114  
Growing Degree Days 14 (Base 50)    
Moisture  
Dew Point 50 °F    
Average Humidity 64    
Maximum Humidity 96    
Minimum Humidity 31    
Precipitation  
Precipitation 0.04 in 0.09 in 0.59 in (1907)
Month to date precipitation 0.07 0.27  
Year to date precipitation 10.57 14.46  
Snow  
Snow 0.00 in 0.00 in 0.00 in (2002)
Month to date snowfall 0.0 0.0  
Since 1 July snowfall 0.0 0.0  
Snow Depth 0.00 in    
Sea Level Pressure  
Sea Level Pressure 30.11 in    
Wind  
Wind Speed 3 mph (NE)    
Max Wind Speed 17 mph    
Max Gust Speed 28 mph    
Visibility 10 miles    
Events      
T = Trace of Precipitation, MM = Missing Value Source: NWS Daily Summary

Daily Weather History Graph

Daily Weather History Graph

Search for Another Location

Airport or City:

Trip Planner

Search our weather history database for the weather conditions in past years. The results will help you decide how hot, cold, wet, or windy it might be!

Date:

Astronomy

Sep. 03, 2012 Rise Set
Actual Time 6:01 AM MST 6:49 PM MST
Civil Twilight 5:35 AM MST 7:15 PM MST
Nautical Twilight 5:04 AM MST 7:46 PM MST
Astronomical Twilight 4:33 AM MST 8:17 PM MST
Moon 8:22 PM MST (9/3) 9:02 AM MST (9/3)
Length of Visible Light 13h 40m
Length of Day
12h 48m
Waning Gibbous, 90% of the Moon is Illuminated
Sep 3
Waning Gibbous
Sep 8
Last Quarter
Sep 15
New
Sep 22
First Quarter
Sep 29
Full

Hourly Weather History & Observations

Time (MST) Temp. Dew Point Humidity Pressure Visibility Wind Dir Wind Speed Gust Speed Precip Events Conditions
12:57 AM 52.0 °F 50.0 °F 93% 30.07 in 10.0 mi Calm Calm - N/A   Clear
1:57 AM 52.0 °F 50.0 °F 93% 30.05 in 10.0 mi Calm Calm - N/A   Clear
2:57 AM 52.0 °F 48.9 °F 89% 30.32 in 10.0 mi Calm Calm - N/A   Clear
3:57 AM 52.0 °F 48.9 °F 89% 30.04 in 10.0 mi Calm Calm - N/A   Clear
4:57 AM 50.0 °F 48.0 °F 93% 30.10 in 10.0 mi NE 3.5 mph - N/A   Clear
5:57 AM 50.0 °F 46.9 °F 89% 30.12 in 10.0 mi Calm Calm - N/A   Clear
6:57 AM 53.1 °F 50.0 °F 89% 30.13 in 10.0 mi Calm Calm - N/A   Scattered Clouds
7:57 AM 64.0 °F 52.0 °F 65% 30.10 in 10.0 mi Calm Calm - N/A   Overcast
8:57 AM 69.1 °F 52.0 °F 54% 30.11 in 10.0 mi WSW 4.6 mph - N/A   Partly Cloudy
9:57 AM 73.0 °F 51.1 °F 46% 30.10 in 10.0 mi Variable 3.5 mph - N/A   Clear
10:57 AM 75.0 °F 45.0 °F 34% 30.10 in 10.0 mi Variable 5.8 mph - N/A   Clear
11:57 AM 75.0 °F 46.9 °F 37% 30.10 in 10.0 mi West 8.1 mph - N/A   Partly Cloudy
12:57 PM 77.0 °F 44.1 °F 31% 30.07 in 10.0 mi Variable 5.8 mph - N/A   Clear
1:57 PM 66.0 °F 57.9 °F 75% 30.13 in 10.0 mi Calm Calm - 0.04 in   Mostly Cloudy
2:57 PM 66.9 °F 54.0 °F 63% 30.12 in 10.0 mi East 16.1 mph 21.9 mph N/A   Scattered Clouds
3:57 PM 66.9 °F 51.1 °F 57% 30.12 in 10.0 mi East 13.8 mph 19.6 mph N/A   Mostly Cloudy
4:57 PM 68.0 °F 50.0 °F 52% 30.11 in 10.0 mi NE 6.9 mph - N/A   Scattered Clouds
5:57 PM 64.9 °F 51.1 °F 61% 30.11 in 10.0 mi NE 6.9 mph - N/A   Mostly Cloudy
6:57 PM 62.1 °F 53.1 °F 72% 30.11 in 10.0 mi Calm Calm - N/A   Mostly Cloudy
7:57 PM 59.0 °F 52.0 °F 78% 30.09 in 10.0 mi Calm Calm - N/A   Clear
8:57 PM 55.9 °F 51.1 °F 84% 30.10 in 10.0 mi Calm Calm - N/A   Clear
9:57 PM 55.0 °F 52.0 °F 89% 30.09 in 10.0 mi Calm Calm - N/A   Clear
10:57 PM 54.0 °F 51.1 °F 90% 30.09 in 10.0 mi Calm Calm - N/A   Clear
11:57 PM 53.1 °F 50.0 °F 89% 30.10 in 10.0 mi Calm Calm - N/A   Scattered Clouds